Torna al catalogo

CZ-6A DEB

AttivoPO
NORAD 61159·DEBRIS·🇨🇳 China

Lanciato Aug 6, 2024 da Taiyuan Satellite Launch Center

Loading…

Prossimi Passaggi (prossime 24 ore)

TLE

AggiornatoSource: Space-Track

Epoca: Sep 14, 2026, 00:01 UTC

1 61159U 24140RD  26257.00133108  .00000996  00000-0  27921-3 0  9999
2 61159  88.9588 257.7973 0056050   5.7604 354.4232 14.44399320108627

Traccia CZ-6A DEB in tempo reale con AllMySat

Download on the App Store